Location: Hackbridge
(51.3833°N, 0.1500°W)
Time: 18:31:03
(UTC+00:00)

NOSS 3-3 (A) - Pass Details

Date: 13 October 2019
Orbit: 860 x 1352 km, 63.4° (Epoch: 27 October)

Event Time Altitude Azimuth Distance (km) Brightness Sun altitude
Rises 19:52:45 0° 314° (NW) 3,917 8.2 -25.5°
Reaches altitude 10° 19:55:18 10° 315° (NW) 3,024 7.4 -25.8°
Maximum altitude 20:02:40 82° 44° (NE) 1,247 4.4 -26.9°
Enters shadow 20:04:34 56° 123° (ESE) 1,460 4.5 -27.2°
